Location: Brompton
(51.4000°N, 0.5333°E)
Time: 17:16:40
(UTC+00:00)

Cosmos 1782 Rocket - Pass Details

Date: 11 May 2021
Orbit: 606 x 633 km, 82.5° (Epoch: 16 June)

Event Time Altitude Azimuth Distance (km) Brightness Sun altitude
Rises 23:43:41 0° 348° (NNW) 2,936 8.6 -20.4°
Reaches altitude 10° 23:45:56 10° 347° (NNW) 2,020 7.3 -20.4°
Maximum altitude 23:50:25 79° 261° (W) 644 3.5 -20.5°
Enters shadow 23:51:23 54° 187° (S) 766 3.6 -20.5°
